Weather History for Adak, AK

Change the Weather History Date:

Wednesday, February 6, 2013

  Actual Average Record
Temperature  
Mean Temperature 38 °F -  
Max Temperature 41 °F 36 °F 46 °F (1985)
Min Temperature 35 °F 29 °F 12 °F (1998)
Degree Days  
Heating Degree Days 27    
Moisture  
Dew Point 32 °F    
Average Humidity 80    
Maximum Humidity 93    
Minimum Humidity 61    
Precipitation  
Precipitation 1.18 in - - ()
Sea Level Pressure  
Sea Level Pressure 28.75 in    
Wind  
Wind Speed 23 mph (South)    
Max Wind Speed 32 mph    
Max Gust Speed 45 mph    
Visibility 9 miles    
Events      
Averages and records for this station are not official NWS values.
T = Trace of Precipitation, MM = Missing Value Source: NWS Daily Summary

Daily Weather History Graph

Daily Weather History Graph

Search for Another Location

Airport:

Trip Planner

Search our weather history database for the weather conditions in past years. The results will help you decide how hot, cold, wet, or windy it might be!

Date:

Astronomy

Feb. 06, 2013 Rise Set
Actual Time 9:16 AM HAST 6:45 PM HAST
Civil Twilight 8:41 AM HAST 7:21 PM HAST
Nautical Twilight 8:01 AM HAST 8:01 PM HAST
Astronomical Twilight 7:21 AM HAST 8:40 PM HAST
Moon 6:29 AM HAST (2/6) 3:05 PM HAST (2/6)
Length of Visible Light 10h 40m
Length of Day
9h 28m
Waning Crescent, 15% of the Moon is Illuminated
Feb 6
Waning Crescent
Feb 9
New
Feb 17
First Quarter
Feb 25
Full
Mar 4
Last Quarter

Hourly Weather History & Observations

Time (HAST) Temp. Windchill Dew Point Humidity Pressure Visibility Wind Dir Wind Speed Gust Speed Precip Events Conditions
12:16 AM 37.4 °F 24.6 °F 33.8 °F 87% 28.79 in 4.0 mi ESE 32.2 mph 44.9 mph 0.06 in   Overcast
12:36 AM 37.4 °F 25.6 °F 33.8 °F 87% 28.77 in 5.0 mi ESE 26.5 mph 35.7 mph 0.13 in   Overcast
12:56 AM 39.2 °F 27.6 °F 35.6 °F 87% 28.75 in 8.0 mi SE 28.8 mph 38.0 mph 0.19 in   Overcast
1:16 AM 39.2 °F 27.6 °F 37.4 °F 93% 28.75 in 10.0 mi SSE 28.8 mph 41.4 mph 0.08 in   Overcast
1:36 AM 39.2 °F 27.8 °F 37.4 °F 93% 28.73 in 6.0 mi SSE 27.6 mph 32.2 mph 0.23 in   Overcast
1:56 AM 39.2 °F 29.8 °F 37.4 °F 93% 28.72 in 9.0 mi South 18.4 mph 28.8 mph 0.34 in   Overcast
2:16 AM 39.2 °F 28.7 °F 37.4 °F 93% 28.72 in 5.0 mi South 23.0 mph 31.1 mph 0.06 in   Overcast
2:36 AM 35.6 °F 22.1 °F 32.0 °F 87% 28.74 in 5.0 mi WSW 32.2 mph 41.4 mph 0.17 in   Overcast
2:56 AM 35.6 °F 23.0 °F 32.0 °F 87% 28.76 in 5.0 mi SW 27.6 mph 38.0 mph 0.25 in   Overcast
3:16 AM 35.6 °F 23.2 °F 30.2 °F 81% 28.78 in 6.0 mi SSW 26.5 mph 36.8 mph 0.05 in   Overcast
3:36 AM 35.6 °F 24.8 °F 32.0 °F 87% 28.78 in 7.0 mi SSW 19.6 mph 29.9 mph 0.14 in   Overcast
3:56 AM 35.6 °F 25.9 °F 32.0 °F 87% 28.79 in 9.0 mi SSW 16.1 mph 20.7 mph 0.17 in   Overcast
4:16 AM 35.6 °F 25.5 °F 32.0 °F 87% 28.79 in 10.0 mi SSW 17.3 mph 25.3 mph 0.08 in   Overcast
4:36 AM 37.4 °F 27.2 °F 33.8 °F 87% 28.78 in 10.0 mi South 19.6 mph 27.6 mph 0.14 in   Overcast
4:56 AM 37.4 °F 28.9 °F 33.8 °F 87% 28.79 in 10.0 mi South 13.8 mph 23.0 mph 0.31 in   Overcast
5:16 AM 37.4 °F 26.4 °F 30.2 °F 75% 28.79 in 10.0 mi SSW 23.0 mph 27.6 mph 0.06 in   Overcast
5:36 AM 37.4 °F 28.9 °F 30.2 °F 75% 28.79 in 10.0 mi South 13.8 mph - 0.13 in   Overcast
5:56 AM 37.4 °F 27.2 °F 32.0 °F 81% 28.79 in 10.0 mi South 19.6 mph 28.8 mph 0.24 in   Overcast
6:16 AM 37.4 °F 28.2 °F 30.2 °F 75% 28.79 in 10.0 mi South 16.1 mph 23.0 mph 0.08 in   Overcast
6:36 AM 37.4 °F 26.4 °F 30.2 °F 75% 28.79 in 10.0 mi South 23.0 mph 29.9 mph 0.10 in   Overcast
6:56 AM 37.4 °F 26.6 °F 30.2 °F 75% 28.79 in 10.0 mi South 21.9 mph 27.6 mph 0.21 in   Mostly Cloudy
7:16 AM 37.4 °F 26.9 °F 30.2 °F 75% 28.79 in 10.0 mi South 20.7 mph 29.9 mph 0.08 in   Partly Cloudy
7:36 AM 37.4 °F 27.5 °F 30.2 °F 75% 28.79 in 10.0 mi South 18.4 mph 26.5 mph 0.18 in   Mostly Cloudy
7:56 AM 37.4 °F 26.6 °F 30.2 °F 75% 28.79 in 10.0 mi South 21.9 mph - 0.27 in   Mostly Cloudy
8:16 AM 37.4 °F 26.6 °F 30.2 °F 75% 28.79 in 10.0 mi SSE 21.9 mph 27.6 mph 0.07 in   Mostly Cloudy
8:36 AM 37.4 °F 27.2 °F 30.2 °F 75% 28.78 in 10.0 mi South 19.6 mph 33.4 mph 0.17 in   Overcast
8:56 AM 37.4 °F 25.9 °F 30.2 °F 75% 28.79 in 10.0 mi SSE 25.3 mph 31.1 mph 0.20 in   Overcast
9:16 AM 37.4 °F 26.9 °F 30.2 °F 75% 28.79 in 10.0 mi South 20.7 mph 31.1 mph 0.06 in   Overcast
9:36 AM 37.4 °F 26.4 °F 30.2 °F 75% 28.79 in 10.0 mi South 23.0 mph 29.9 mph 0.14 in   Overcast
9:56 AM 37.4 °F 27.8 °F 30.2 °F 75% 28.79 in 10.0 mi South 17.3 mph 25.3 mph 0.30 in   Overcast
10:16 AM 37.4 °F 25.4 °F 32.0 °F 81% 28.78 in 9.0 mi SSE 27.6 mph 32.2 mph 0.02 in   Overcast
10:36 AM 35.6 °F 24.5 °F 32.0 °F 87% 28.79 in 7.0 mi South 20.7 mph 29.9 mph 0.07 in   Overcast
10:56 AM 35.6 °F 25.2 °F 32.0 °F 87% 28.78 in 9.0 mi South 18.4 mph 24.2 mph 0.20 in   Overcast
11:16 AM 35.6 °F 24.8 °F 32.0 °F 87% 28.78 in 9.0 mi South 19.6 mph 23.0 mph N/A   Overcast
11:36 AM 37.4 °F 26.6 °F 33.8 °F 87% 28.77 in 10.0 mi South 21.9 mph 27.6 mph 0.32 in   Overcast
11:56 AM 37.4 °F 26.6 °F 33.8 °F 87% 28.77 in 10.0 mi South 21.9 mph 28.8 mph 0.48 in   Overcast
12:16 PM 37.4 °F 26.6 °F 33.8 °F 87% 28.77 in 10.0 mi South 21.9 mph 32.2 mph N/A   Overcast
12:36 PM 37.4 °F 28.2 °F 32.0 °F 81% 28.77 in 10.0 mi South 16.1 mph 29.9 mph N/A   Overcast
12:56 PM 37.4 °F 26.1 °F 32.0 °F 81% 28.77 in 10.0 mi South 24.2 mph 32.2 mph N/A   Overcast
1:16 PM 37.4 °F 27.2 °F 30.2 °F 75% 28.76 in 10.0 mi South 19.6 mph 31.1 mph N/A   Overcast
1:36 PM 39.2 °F 30.5 °F 30.2 °F 70% 28.76 in 10.0 mi South 16.1 mph 29.9 mph N/A   Overcast
1:56 PM 39.2 °F 29.3 °F 30.2 °F 70% 28.76 in 10.0 mi South 20.7 mph 32.2 mph N/A   Overcast
2:16 PM 39.2 °F 29.8 °F 30.2 °F 70% 28.75 in 10.0 mi South 18.4 mph 23.0 mph N/A   Overcast
2:36 PM 39.2 °F 29.0 °F 32.0 °F 75% 28.75 in 10.0 mi South 21.9 mph 27.6 mph N/A   Overcast
2:56 PM 39.2 °F 30.2 °F 30.2 °F 70% 28.75 in 10.0 mi South 17.3 mph - N/A   Overcast
3:16 PM 39.2 °F 29.3 °F 32.0 °F 75% 28.74 in 9.0 mi South 20.7 mph 31.1 mph 0.02 in   Overcast
3:36 PM 39.2 °F 28.3 °F 30.2 °F 70% 28.74 in 10.0 mi South 25.3 mph 31.1 mph 0.02 in   Overcast
3:56 PM 37.4 °F 25.4 °F 30.2 °F 75% 28.73 in 8.0 mi South 27.6 mph 33.4 mph 0.02 in   Overcast
4:16 PM 37.4 °F 29.3 °F 32.0 °F 81% 28.73 in 10.0 mi South 12.7 mph 28.8 mph N/A   Overcast
4:36 PM 39.2 °F 29.3 °F 30.2 °F 70% 28.73 in 10.0 mi South 20.7 mph 34.5 mph N/A   Overcast
4:56 PM 37.4 °F 26.4 °F 32.0 °F 81% 28.74 in 9.0 mi SSE 23.0 mph 33.4 mph N/A   Overcast
5:16 PM 37.4 °F 26.9 °F 32.0 °F 81% 28.74 in 8.0 mi South 20.7 mph 31.1 mph N/A   Overcast
5:36 PM 37.4 °F 28.9 °F 30.2 °F 75% 28.74 in 10.0 mi South 13.8 mph 19.6 mph N/A   Overcast
5:56 PM 37.4 °F 28.5 °F 30.2 °F 75% 28.74 in 10.0 mi South 15.0 mph 24.2 mph N/A   Overcast
6:16 PM 37.4 °F 27.5 °F 30.2 °F 75% 28.73 in 10.0 mi SSE 18.4 mph 25.3 mph N/A   Overcast
6:36 PM 35.6 °F 25.2 °F 32.0 °F 87% 28.72 in 5.0 mi South 18.4 mph 26.5 mph N/A   Mostly Cloudy
6:56 PM 35.6 °F 24.8 °F 30.2 °F 81% 28.72 in 6.0 mi South 19.6 mph 23.0 mph N/A   Overcast
7:16 PM 37.4 °F 25.6 °F 32.0 °F 81% 28.71 in 8.0 mi SSE 26.5 mph 31.1 mph N/A   Overcast
7:36 PM 37.4 °F 26.6 °F 30.2 °F 75% 28.72 in 10.0 mi SSE 21.9 mph 28.8 mph N/A   Mostly Cloudy
7:56 PM 37.4 °F 26.9 °F 30.2 °F 75% 28.72 in 10.0 mi South 20.7 mph 25.3 mph N/A   Overcast
8:16 PM 37.4 °F 26.9 °F 30.2 °F 75% 28.72 in 10.0 mi South 20.7 mph 32.2 mph N/A   Overcast
8:36 PM 37.4 °F 28.2 °F 32.0 °F 81% 28.71 in 10.0 mi South 16.1 mph 28.8 mph N/A   Overcast
8:56 PM 35.6 °F 25.5 °F 30.2 °F 81% 28.72 in 8.0 mi South 17.3 mph 34.5 mph 0.01 in   Overcast
9:16 PM 37.4 °F 27.2 °F 32.0 °F 81% 28.71 in 10.0 mi SSE 19.6 mph 25.3 mph N/A   Overcast
9:36 PM 35.6 °F 24.5 °F 30.2 °F 81% 28.71 in 10.0 mi South 20.7 mph 26.5 mph N/A   Overcast
9:56 PM 35.6 °F 24.5 °F 32.0 °F 87% 28.70 in 10.0 mi South 20.7 mph 28.8 mph 0.01 in   Mostly Cloudy
10:16 PM 35.6 °F 25.2 °F 32.0 °F 87% 28.70 in 10.0 mi SSE 18.4 mph 25.3 mph N/A   Mostly Cloudy
10:36 PM 37.4 °F 27.5 °F 30.2 °F 75% 28.70 in 10.0 mi SSE 18.4 mph 24.2 mph N/A   Overcast
10:56 PM 37.4 °F 28.5 °F 30.2 °F 75% 28.70 in 10.0 mi SE 15.0 mph 23.0 mph N/A   Overcast
11:16 PM 37.4 °F 26.1 °F 33.8 °F 87% 28.68 in 10.0 mi SE 24.2 mph - N/A   Overcast
11:36 PM 35.6 °F 25.5 °F 32.0 °F 87% 28.68 in 10.0 mi SSE 17.3 mph - N/A   Overcast
11:56 PM 35.6 °F 25.5 °F 33.8 °F 93% 28.68 in 10.0 mi ESE 17.3 mph - N/A   Overcast